| time (UTC) | temp F | wind direction | speed knots | gust knots | rain 1hr in | rain 24hr in | rain mn in | humidity % | barometer mb |
| 20260506192821 | 54 | 290 | 3.5 | 10.4 | 0.01 | 0.56 | 0.39 | 89 | |
| 20260506192323 | 55 | 285 | 5.2 | 10.4 | 0.01 | 0.56 | 0.39 | 88 | |
| 20260506191823 | 57 | 296 | 7.0 | 12.2 | 0.00 | 0.55 | 0.38 | 86 | |
| 20260506191321 | 60 | 239 | 1.7 | 5.2 | 0.00 | 0.55 | 0.38 | 90 | |
| 20260506190822 | 60 | 264 | 0.9 | 3.5 | 0.00 | 0.55 | 0.38 | 89 | |
| 20260506190322 | 60 | 276 | 0.0 | 6.1 | 0.00 | 0.55 | 0.38 | 89 | |
| 20260506185823 | 60 | 210 | 0.0 | 6.1 | 0.00 | 0.55 | 0.38 | 89 | |
| 20260506185322 | 60 | 122 | 0.9 | 7.8 | 0.00 | 0.55 | 0.38 | 88 | |
| 20260506184843 | 60 | 210 | 1.7 | 11.3 | 0.00 | 0.55 | 0.38 | 88 | |
| 20260506184321 | 60 | 200 | 2.6 | 7.0 | 0.00 | 0.55 | 0.38 | 88 | |
| 20260506183821 | 60 | 138 | 2.6 | 10.4 | 0.00 | 0.55 | 0.38 | 88 | |
| 20260506183321 | 60 | 148 | 0.9 | 10.4 | 0.00 | 0.55 | 0.38 | 88 | |
| 20260506182822 | 60 | 154 | 5.2 | 10.4 | 0.00 | 0.55 | 0.38 | 88 | |
| 20260506182320 | 60 | 139 | 2.6 | 8.7 | 0.00 | 0.55 | 0.38 | 89 | |
| 20260506181842 | 60 | 107 | 2.6 | 10.4 | 0.00 | 0.55 | 0.38 | 90 | |
| 20260506181320 | 60 | 108 | 3.5 | 9.6 | 0.00 | 0.55 | 0.38 | 90 | |
| 20260506180821 | 60 | 122 | 2.6 | 9.6 | 0.00 | 0.55 | 0.38 | 91 | |
| 20260506180322 | 60 | 128 | 0.9 | 5.2 | 0.01 | 0.55 | 0.38 | 92 | |
| 20260506175822 | 60 | 220 | 1.7 | 5.2 | 0.01 | 0.55 | 0.38 | 92 | |
| 20260506175321 | 60 | 35 | 0.0 | 0.0 | 0.01 | 0.55 | 0.38 | 93 | |
| 20260506174820 | 59 | 156 | 0.0 | 0.0 | 0.01 | 0.55 | 0.38 | 93 | |
| 20260506174320 | 59 | 154 | 0.0 | 0.0 | 0.01 | 0.55 | 0.38 | 92 | |
| 20260506173820 | 59 | 135 | 0.0 | 3.5 | 0.01 | 0.55 | 0.38 | 93 | |
| 20260506173319 | 59 | 217 | 0.9 | 5.2 | 0.01 | 0.55 | 0.38 | 92 | |
| 20260506172819 | 59 | 149 | 0.9 | 3.5 | 0.01 | 0.55 | 0.38 | 92 | |
| 20260506172319 | 59 | 259 | 0.9 | 4.3 | 0.02 | 0.55 | 0.38 | 92 | |
| 20260506171819 | 59 | 224 | 1.7 | 4.3 | 0.02 | 0.55 | 0.38 | 92 | |
| 20260506171318 | 59 | 256 | 0.0 | 4.3 | 0.02 | 0.55 | 0.38 | 93 | |
| 20260506170819 | 59 | 256 | 1.7 | 4.3 | 0.03 | 0.55 | 0.38 | 92 | |
| 20260506170319 | 59 | 203 | 0.9 | 4.3 | 0.03 | 0.54 | 0.37 | 93 | |
| 20260506165819 | 59 | 192 | 0.9 | 4.3 | 0.04 | 0.54 | 0.37 | 92 | |
| 20260506165318 | 59 | 199 | 0.0 | 4.3 | 0.04 | 0.54 | 0.37 | 93 | |
| 20260506164819 | 58 | 193 | 0.0 | 5.2 | 0.05 | 0.54 | 0.37 | 93 | |
| 20260506164321 | 58 | 150 | 0.0 | 4.3 | 0.06 | 0.54 | 0.37 | 93 | |
| 20260506163821 | 58 | 199 | 0.9 | 4.3 | 0.06 | 0.54 | 0.37 | 93 | |
| 20260506163341 | 58 | 244 | 0.0 | 4.3 | 0.07 | 0.54 | 0.37 | 92 | |
| 20260506162819 | 58 | 243 | 0.0 | 4.3 | 0.08 | 0.54 | 0.37 | 92 | |
| 20260506162320 | 58 | 274 | 0.9 | 2.6 | 0.07 | 0.53 | 0.36 | 92 | |
| 20260506161819 | 58 | 258 | 0.0 | 3.5 | 0.07 | 0.53 | 0.36 | 92 | |
| 20260506161319 | 58 | 249 | 0.9 | 3.5 | 0.07 | 0.53 | 0.36 | 92 | |
| 20260506160820 | 58 | 235 | 0.9 | 1.7 | 0.06 | 0.52 | 0.35 | 92 | |
| 20260506160319 | 58 | 235 | 0.0 | 3.5 | 0.05 | 0.51 | 0.34 | 92 | |
| 20260506155819 | 58 | 233 | 0.9 | 3.5 | 0.04 | 0.50 | 0.33 | 92 | |
| 20260506155319 | 58 | 252 | 0.0 | 2.6 | 0.04 | 0.50 | 0.33 | 92 | |
| 20260506154818 | 58 | 241 | 0.0 | 3.5 | 0.04 | 0.49 | 0.32 | 92 | |
| 20260506153817 | 58 | 121 | 0.9 | 10.4 | 0.03 | 0.48 | 0.31 | 92 | |
| 20260506153316 | 58 | 181 | 1.7 | 5.2 | 0.02 | 0.47 | 0.30 | 93 | |
| 20260506152836 | 58 | 212 | 1.7 | 5.2 | 0.02 | 0.46 | 0.29 | 93 | |
| 20260506152354 | 58 | 206 | 0.0 | 4.3 | 0.03 | 0.46 | 0.29 | 93 | |
| 20260506151832 | 58 | 205 | 0.9 | 4.3 | 0.03 | 0.46 | 0.29 | 93 | |
| 20260506151333 | 58 | 4 | 0.0 | 0.0 | 0.04 | 0.46 | 0.29 | 93 | |
| 20260506150832 | 58 | 4 | 0.0 | 0.0 | 0.05 | 0.46 | 0.29 | 93 | |
| 20260506150332 | 58 | 25 | 0.0 | 0.0 | 0.06 | 0.46 | 0.29 | 94 | |
| 20260506145832 | 57 | 27 | 0.0 | 0.0 | 0.06 | 0.46 | 0.29 | 94 | |
| 20260506145332 | 57 | 305 | 0.0 | 0.0 | 0.07 | 0.46 | 0.29 | 94 | |
| 20260506144851 | 57 | 304 | 0.0 | 0.0 | 0.07 | 0.45 | 0.28 | 94 | |
| 20260506144329 | 56 | 312 | 0.0 | 0.0 | 0.08 | 0.45 | 0.28 | 93 | |
| 20260506143830 | 56 | 312 | 0.0 | 0.0 | 0.10 | 0.45 | 0.28 | 93 | |
| 20260506143329 | 56 | 304 | 0.0 | 0.0 | 0.11 | 0.45 | 0.28 | 93 | |
| 20260506142827 | 56 | 273 | 0.0 | 0.0 | 0.12 | 0.44 | 0.27 | 93 | |
| 20260506142328 | 56 | 273 | 0.0 | 0.0 | 0.12 | 0.43 | 0.26 | 93 | |
| 20260506141844 | 56 | 272 | 0.0 | 0.0 | 0.13 | 0.43 | 0.26 | 93 | |
| 20260506141324 | 56 | 273 | 0.0 | 0.0 | 0.12 | 0.42 | 0.25 | 93 | |
| 20260506140823 | 56 | 272 | 0.0 | 0.0 | 0.12 | 0.41 | 0.24 | 92 | |
| 20260506140320 | 56 | 272 | 0.0 | 0.0 | 0.11 | 0.40 | 0.23 | 92 | |
| 20260506135820 | 56 | 272 | 0.0 | 0.0 | 0.11 | 0.40 | 0.23 | 92 | |
| 20260506135341 | 56 | 272 | 0.0 | 0.0 | 0.10 | 0.39 | 0.22 | 92 | |
| 20260506134819 | 56 | 273 | 0.0 | 0.0 | 0.09 | 0.38 | 0.21 | 92 | |
| 20260506134319 | 56 | 192 | 0.0 | 2.6 | 0.07 | 0.36 | 0.19 | 92 | |
| 20260506133820 | 56 | 193 | 0.0 | 5.2 | 0.06 | 0.35 | 0.18 | 92 | |
| 20260506133320 | 56 | 185 | 1.7 | 5.2 | 0.06 | 0.34 | 0.17 | 92 | |
| 20260506132818 | 56 | 210 | 0.9 | 10.4 | 0.04 | 0.33 | 0.15 | 92 | |
| 20260506132318 | 56 | 107 | 4.3 | 10.4 | 0.03 | 0.32 | 0.14 | 93 | |
| 20260506131819 | 56 | 130 | 2.6 | 7.8 | 0.02 | 0.31 | 0.13 | 93 | |
| 20260506131320 | 56 | 125 | 2.6 | 7.0 | 0.02 | 0.31 | 0.13 | 94 | |
| 20260506130819 | 56 | 155 | 1.7 | 5.2 | 0.01 | 0.30 | 0.12 | 94 | |
| 20260506130340 | 55 | 130 | 0.9 | 5.2 | 0.01 | 0.30 | 0.12 | 95 | |
| 20260506125819 | 55 | 87 | 0.0 | 0.0 | 0.01 | 0.30 | 0.12 | 95 | |
| 20260506125318 | 55 | 341 | 0.0 | 0.0 | 0.01 | 0.30 | 0.12 | 95 | |
| 20260506124818 | 55 | 341 | 0.0 | 0.0 | 0.02 | 0.30 | 0.12 | 95 | |
| 20260506124318 | 55 | 316 | 0.0 | 0.0 | 0.02 | 0.30 | 0.12 | 95 | |
| 20260506123819 | 55 | 316 | 0.0 | 0.0 | 0.02 | 0.30 | 0.12 | 95 | |
| 20260506123318 | 54 | 316 | 0.0 | 0.0 | 0.02 | 0.29 | 0.11 | 95 | |
| 20260506122818 | 54 | 316 | 0.0 | 0.0 | 0.02 | 0.29 | 0.11 | 95 | |
| 20260506122317 | 54 | 33 | 0.0 | 0.0 | 0.03 | 0.29 | 0.11 | 95 | |
| 20260506121818 | 54 | 35 | 0.0 | 0.0 | 0.03 | 0.29 | 0.11 | 95 | |
| 20260506121319 | 54 | 39 | 0.0 | 0.0 | 0.04 | 0.29 | 0.11 | 95 | |
| 20260506120818 | 54 | 46 | 0.0 | 0.0 | 0.04 | 0.29 | 0.11 | 95 | |
| 20260506120318 | 53 | 48 | 0.0 | 0.0 | 0.05 | 0.29 | 0.11 | 95 | |
| 20260506115836 | 53 | 48 | 0.0 | 0.0 | 0.05 | 0.29 | 0.11 | 95 | |
| 20260506115315 | 53 | 48 | 0.0 | 0.0 | 0.06 | 0.29 | 0.11 | 95 | |
| 20260506114816 | 53 | 48 | 0.0 | 0.0 | 0.06 | 0.28 | 0.10 | 95 | |
| 20260506114315 | 53 | 56 | 0.0 | 0.0 | 0.06 | 0.28 | 0.10 | 94 | |
| 20260506113835 | 53 | 60 | 0.0 | 0.0 | 0.07 | 0.28 | 0.10 | 94 | |
| 20260506113315 | 53 | 60 | 0.0 | 0.0 | 0.06 | 0.27 | 0.09 | 95 | |
| 20260506112815 | 53 | 60 | 0.0 | 0.0 | 0.06 | 0.27 | 0.09 | 95 | |
| 20260506112314 | 52 | 60 | 0.0 | 0.0 | 0.05 | 0.26 | 0.08 | 94 | |
| 20260506111832 | 52 | 59 | 0.0 | 0.0 | 0.06 | 0.26 | 0.08 | 94 | |
| 20260506111330 | 52 | 60 | 0.0 | 0.0 | 0.05 | 0.25 | 0.07 | 94 | |
| 20260506110849 | 52 | 60 | 0.0 | 0.0 | 0.05 | 0.25 | 0.07 | 94 | |
| 20260506110327 | 52 | 60 | 0.0 | 0.0 | 0.05 | 0.24 | 0.06 | 94 | |
| 20260506105827 | 52 | 60 | 0.0 | 0.0 | 0.04 | 0.23 | 0.05 | 94 | |
| 20260506105326 | 52 | 60 | 0.0 | 0.0 | 0.04 | 0.23 | 0.05 | 94 | |
| 20260506104826 | 52 | 60 | 0.0 | 0.0 | 0.03 | 0.22 | 0.04 | 94 | |
| 20260506104325 | 52 | 60 | 0.0 | 0.0 | 0.03 | 0.22 | 0.04 | 94 | |
| 20260506103826 | 52 | 60 | 0.0 | 0.0 | 0.03 | 0.21 | 0.03 | 94 | |
| 20260506103323 | 52 | 60 | 0.0 | 0.0 | 0.03 | 0.21 | 0.03 | 93 | |
| 20260506102823 | 52 | 60 | 0.0 | 0.0 | 0.03 | 0.21 | 0.03 | 93 | |
| 20260506102344 | 52 | 60 | 0.0 | 0.0 | 0.03 | 0.21 | 0.03 | 93 | |
| 20260506101824 | 52 | 60 | 0.0 | 0.0 | 0.02 | 0.20 | 0.02 | 93 | |
| 20260506101324 | 52 | 60 | 0.0 | 0.0 | 0.02 | 0.20 | 0.02 | 93 | |
| 20260506100823 | 52 | 60 | 0.0 | 0.0 | 0.02 | 0.20 | 0.02 | 93 | |
| 20260506100324 | 52 | 60 | 0.0 | 0.0 | 0.01 | 0.19 | 0.01 | 93 | |
| 20260506095823 | 52 | 60 | 0.0 | 0.0 | 0.01 | 0.19 | 0.01 | 93 | |
| 20260506095323 | 52 | 60 | 0.0 | 0.0 | 0.01 | 0.19 | 0.01 | 93 | |
| 20260506094822 | 52 | 60 | 0.0 | 0.0 | 0.01 | 0.19 | 0.01 | 93 | |
| 20260506094322 | 52 | 60 | 0.0 | 0.0 | 0.01 | 0.19 | 0.01 | 94 | |
| 20260506093821 | 52 | 60 | 0.0 | 0.0 | 0.00 | 0.18 | 0.00 | 93 | |
| 20260506093321 | 52 | 56 | 0.0 | 0.0 | 0.00 | 0.18 | 0.00 | 93 | |
| 20260506092822 | 52 | 56 | 0.0 | 0.0 | 0.00 | 0.23 | 0.00 | 93 | |
| 20260506092322 | 52 | 56 | 0.0 | 0.0 | 0.00 | 0.23 | 0.00 | 93 | |
| 20260506091822 | 52 | 56 | 0.0 | 0.0 | 0.00 | 0.23 | 0.00 | 93 | |
| 20260506091341 | 52 | 56 | 0.0 | 0.0 | 0.00 | 0.23 | 0.00 | 93 | |
| 20260506090820 | 52 | 56 | 0.0 | 0.0 | 0.00 | 0.23 | 0.00 | 93 | |
| 20260506090320 | 52 | 56 | 0.0 | 0.0 | 0.00 | 0.23 | 0.00 | 93 | |
| 20260506085819 | 52 | 56 | 0.0 | 0.0 | 0.00 | 0.23 | 0.00 | 93 | |
| 20260506085320 | 52 | 56 | 0.0 | 0.0 | 0.00 | 0.23 | 0.00 | 93 | |
| 20260506084820 | 52 | 56 | 0.0 | 0.0 | 0.00 | 0.23 | 0.00 | 93 | |
| 20260506084318 | 52 | 56 | 0.0 | 0.0 | 0.00 | 0.23 | 0.00 | 93 | |
| 20260506083818 | 52 | 56 | 0.0 | 0.0 | 0.00 | 0.23 | 0.00 | 93 | |
| 20260506083340 | 52 | 56 | 0.0 | 0.0 | 0.00 | 0.23 | 0.00 | 93 | |
| 20260506082839 | 52 | 56 | 0.0 | 0.0 | 0.00 | 0.26 | 0.00 | 93 | |
| 20260506082315 | 52 | 56 | 0.0 | 0.0 | 0.00 | 0.26 | 0.00 | 93 | |
| 20260506081829 | 52 | 56 | 0.0 | 0.0 | 0.00 | 0.26 | 0.00 | 93 | |
| 20260506081328 | 52 | 56 | 0.0 | 0.0 | 0.00 | 0.26 | 0.00 | 93 | |
| 20260506080828 | 52 | 56 | 0.0 | 0.0 | 0.00 | 0.26 | 0.00 | 93 | |
| 20260506080328 | 53 | 56 | 0.0 | 0.0 | 0.00 | 0.26 | 0.00 | 92 | |
| 20260506073328 | 52 | 4 | 0.0 | 0.0 | 0.00 | 0.26 | 0.00 | 92 | |
| 20260506072829 | 52 | 4 | 0.0 | 0.0 | 0.00 | 0.26 | 0.00 | 92 | |
| 20260506072327 | 52 | 4 | 0.0 | 0.0 | 0.00 | 0.26 | 0.00 | 92 | |
| 20260506071825 | 52 | 4 | 0.0 | 0.0 | 0.00 | 0.26 | 0.00 | 92 | |
| 20260506071347 | 52 | 4 | 0.0 | 0.0 | 0.00 | 0.26 | 0.00 | 92 | |
| 20260506070826 | 52 | 4 | 0.0 | 0.0 | 0.00 | 0.26 | 0.00 | 92 | |
| 20260506070346 | 53 | 4 | 0.0 | 0.0 | 0.00 | 0.26 | 0.00 | 92 | |
| 20260506062321 | 53 | 4 | 0.0 | 0.0 | 0.00 | 0.26 | 0.00 | 92 | |
| 20260506061821 | 53 | 4 | 0.0 | 0.0 | 0.00 | 0.26 | 0.00 | 91 | |
| 20260506061321 | 53 | 4 | 0.0 | 0.0 | 0.00 | 0.26 | 0.00 | 91 | |
| 20260506060821 | 53 | 4 | 0.0 | 0.0 | 0.00 | 0.26 | 0.00 | 91 | |
| 20260506060343 | 53 | 4 | 0.0 | 0.0 | 0.00 | 0.26 | 0.00 | 91 | |
| 20260506051319 | 54 | 4 | 0.0 | 0.0 | 0.00 | 0.26 | 0.26 | 90 | |
| 20260506050821 | 54 | 4 | 0.0 | 0.0 | 0.00 | 0.26 | 0.26 | 89 | |
| 20260506050322 | 54 | 4 | 0.0 | 0.0 | 0.00 | 0.26 | 0.26 | 89 | |
| 20260506044820 | 55 | 4 | 0.0 | 0.0 | 0.00 | 0.26 | 0.26 | 88 | |
| 20260506044320 | 55 | 4 | 0.0 | 0.0 | 0.00 | 0.26 | 0.26 | 87 | |
| 20260506043840 | 55 | 4 | 0.0 | 0.0 | 0.00 | 0.26 | 0.26 | 87 | |
| 20260506043319 | 55 | 4 | 0.0 | 0.0 | 0.00 | 0.26 | 0.26 | 87 | |
| 20260506042838 | 55 | 4 | 0.0 | 0.0 | 0.00 | 0.26 | 0.26 | 86 | |
| 20260506042317 | 55 | 4 | 0.0 | 0.0 | 0.00 | 0.26 | 0.26 | 86 | |
| 20260506041818 | 55 | 4 | 0.0 | 0.0 | 0.00 | 0.26 | 0.26 | 85 | |
| 20260506041317 | 55 | 4 | 0.0 | 0.0 | 0.00 | 0.26 | 0.26 | 85 | |
| 20260506040836 | 55 | 4 | 0.0 | 0.0 | 0.00 | 0.26 | 0.26 | 85 | |
| 20260506040316 | 55 | 4 | 0.0 | 0.0 | 0.00 | 0.26 | 0.26 | 85 | |
| 20260506035836 | 56 | 4 | 0.0 | 0.0 | 0.00 | 0.26 | 0.26 | 84 | |
| 20260506035315 | 56 | 4 | 0.0 | 0.0 | 0.00 | 0.26 | 0.26 | 84 | |
| 20260506034815 | 56 | 4 | 0.0 | 0.0 | 0.00 | 0.26 | 0.26 | 84 | |
| 20260506034315 | 55 | 4 | 0.0 | 0.0 | 0.00 | 0.26 | 0.26 | 85 | |
| 20260506033822 | 56 | 19 | 0.0 | 0.0 | 0.00 | 0.26 | 0.26 | 86 | |
| 20260506033320 | 56 | 32 | 0.0 | 0.0 | 0.00 | 0.26 | 0.26 | 87 | |
| 20260506032821 | 56 | 32 | 0.0 | 0.0 | 0.00 | 0.26 | 0.26 | 87 | |
| 20260506032320 | 56 | 21 | 0.0 | 0.0 | 0.00 | 0.26 | 0.26 | 88 | |
| 20260506031839 | 57 | 21 | 0.0 | 0.0 | 0.00 | 0.26 | 0.26 | 88 | |
| 20260506031337 | 57 | 21 | 0.0 | 0.0 | 0.00 | 0.26 | 0.26 | 89 | |
| 20260506030816 | 57 | 259 | 0.0 | 0.0 | 0.00 | 0.26 | 0.26 | 88 | |
| 20260506030316 | 57 | 259 | 0.0 | 0.0 | 0.00 | 0.26 | 0.26 | 89 | |
| 20260506025817 | 57 | 259 | 0.0 | 0.0 | 0.00 | 0.26 | 0.26 | 89 | |
| 20260506025316 | 57 | 259 | 0.0 | 0.0 | 0.00 | 0.26 | 0.26 | 89 | |
| 20260506024835 | 57 | 280 | 0.0 | 0.0 | 0.00 | 0.26 | 0.26 | 89 | |
| 20260506024314 | 57 | 281 | 0.0 | 0.0 | 0.00 | 0.26 | 0.26 | 89 | |
| 20260506023832 | 57 | 282 | 0.0 | 0.0 | 0.00 | 0.26 | 0.26 | 89 | |
| 20260506023353 | 57 | 237 | 0.0 | 0.0 | 0.00 | 0.26 | 0.26 | 89 | |
| 20260506022833 | 58 | 237 | 0.0 | 0.0 | 0.00 | 0.26 | 0.26 | 90 | |
| 20260506022332 | 58 | 332 | 0.0 | 0.0 | 0.00 | 0.26 | 0.26 | 90 | |
| 20260506021831 | 58 | 339 | 0.0 | 5.2 | 0.00 | 0.26 | 0.26 | 90 | |
| 20260506021332 | 58 | 330 | 0.9 | 8.7 | 0.00 | 0.26 | 0.26 | 91 | |
| 20260506020852 | 58 | 327 | 2.6 | 8.7 | 0.00 | 0.26 | 0.26 | 92 | |
| 20260506020323 | 59 | 262 | 0.9 | 3.5 | 0.00 | 0.26 | 0.26 | 92 | |
| 20260506015844 | 59 | 311 | 0.0 | 0.0 | 0.00 | 0.26 | 0.26 | 93 | |
| 20260506015322 | 59 | 315 | 0.0 | 0.0 | 0.00 | 0.26 | 0.26 | 93 | |
| 20260506014842 | 59 | 315 | 0.0 | 0.0 | 0.00 | 0.26 | 0.26 | 93 | |
| 20260506014320 | 59 | 315 | 0.0 | 0.0 | 0.00 | 0.26 | 0.26 | 93 | |
| 20260506013340 | 59 | 315 | 0.0 | 0.0 | 0.00 | 0.26 | 0.26 | 92 | |
| 20260506012817 | 59 | 315 | 0.0 | 0.0 | 0.00 | 0.26 | 0.26 | 92 | |
| 20260506012316 | 59 | 315 | 0.0 | 0.0 | 0.00 | 0.26 | 0.26 | 92 | |
| 20260506011835 | 59 | 316 | 0.0 | 0.0 | 0.00 | 0.26 | 0.26 | 92 | |
| 20260506011332 | 60 | 327 | 0.0 | 0.0 | 0.00 | 0.26 | 0.26 | 92 | |
| 20260506010831 | 60 | 328 | 0.0 | 0.0 | 0.00 | 0.26 | 0.26 | 92 | |
| 20260506010347 | 60 | 328 | 0.0 | 0.0 | 0.00 | 0.26 | 0.26 | 92 | |
| 20260506005826 | 60 | 335 | 0.0 | 0.0 | 0.00 | 0.26 | 0.26 | 92 | |
| 20260506005327 | 60 | 337 | 0.0 | 0.0 | 0.00 | 0.26 | 0.26 | 91 | |
| 20260506004826 | 60 | 337 | 0.0 | 0.0 | 0.00 | 0.26 | 0.26 | 91 | |
| 20260506004345 | 61 | 339 | 0.0 | 0.0 | 0.00 | 0.26 | 0.26 | 91 | |
| 20260506003824 | 61 | 339 | 0.0 | 0.0 | 0.01 | 0.26 | 0.26 | 91 | |
| 20260506003325 | 61 | 339 | 0.0 | 0.0 | 0.01 | 0.26 | 0.26 | 91 | |
| 20260506002844 | 61 | 339 | 0.0 | 0.0 | 0.01 | 0.26 | 0.26 | 91 | |
| 20260506002345 | 61 | 339 | 0.0 | 0.0 | 0.01 | 0.26 | 0.26 | 90 | |
| 20260506001846 | 61 | 339 | 0.0 | 0.0 | 0.01 | 0.26 | 0.26 | 90 | |
| 20260506001323 | 61 | 339 | 0.0 | 0.0 | 0.02 | 0.26 | 0.26 | 89 | |
| 20260506000824 | 61 | 339 | 0.0 | 0.0 | 0.02 | 0.26 | 0.26 | 89 | |
| 20260506000324 | 61 | 339 | 0.0 | 0.0 | 0.02 | 0.26 | 0.26 | 89 | |
| 20260505235824 | 61 | 338 | 0.0 | 0.0 | 0.03 | 0.26 | 0.26 | 88 | |
| 20260505235344 | 62 | 338 | 0.0 | 0.0 | 0.03 | 0.26 | 0.26 | 88 | |
| 20260505234823 | 62 | 339 | 0.0 | 0.0 | 0.03 | 0.26 | 0.26 | 87 | |
| 20260505234342 | 62 | 339 | 0.0 | 0.0 | 0.03 | 0.26 | 0.26 | 87 | |
| 20260505233842 | 62 | 339 | 0.0 | 0.0 | 0.02 | 0.25 | 0.25 | 86 | |
| 20260505233320 | 62 | 299 | 0.0 | 0.0 | 0.02 | 0.25 | 0.25 | 85 | |
| 20260505232820 | 62 | 298 | 0.0 | 0.0 | 0.02 | 0.25 | 0.25 | 85 | |
| 20260505232318 | 63 | 291 | 0.0 | 0.0 | 0.02 | 0.25 | 0.25 | 84 | |
| 20260505231818 | 63 | 290 | 0.0 | 0.0 | 0.01 | 0.24 | 0.24 | 83 | |
| 20260505231338 | 63 | 290 | 0.0 | 0.0 | 0.01 | 0.24 | 0.24 | 83 | |
| 20260505230817 | 63 | 289 | 0.0 | 0.0 | 0.01 | 0.24 | 0.24 | 82 | |
| 20260505230316 | 63 | 289 | 0.0 | 0.0 | 0.01 | 0.24 | 0.24 | 82 | |
| 20260505225817 | 63 | 285 | 0.0 | 0.0 | 0.00 | 0.23 | 0.23 | 81 | |
| 20260505225337 | 63 | 285 | 0.0 | 0.0 | 0.00 | 0.23 | 0.23 | 82 | |
| 20260505224814 | 63 | 285 | 0.0 | 0.0 | 0.00 | 0.23 | 0.23 | 82 | |
| 20260505224314 | 63 | 149 | 0.0 | 0.0 | 0.00 | 0.23 | 0.23 | 82 | |
| 20260505223814 | 63 | 135 | 0.0 | 0.0 | 0.00 | 0.23 | 0.23 | 82 | |
| 20260505223334 | 63 | 140 | 0.0 | 0.0 | 0.00 | 0.23 | 0.23 | 82 | |
| 20260505222833 | 63 | 144 | 0.0 | 2.6 | 0.00 | 0.23 | 0.23 | 81 | |
| 20260505222332 | 63 | 242 | 0.0 | 2.6 | 0.00 | 0.23 | 0.23 | 82 | |
| 20260505221853 | 63 | 70 | 0.0 | 0.9 | 0.00 | 0.23 | 0.23 | 84 | |
| 20260505221331 | 63 | 70 | 0.0 | 3.5 | 0.00 | 0.23 | 0.23 | 84 | |
| 20260505220831 | 63 | 70 | 0.9 | 3.5 | 0.00 | 0.23 | 0.23 | 84 | |
| 20260505220333 | 63 | 8 | 0.0 | 0.0 | 0.00 | 0.23 | 0.23 | 85 | |
| 20260505215813 | 63 | 4 | 0.0 | 0.0 | 0.00 | 0.23 | 0.23 | 86 | |
| 20260505215314 | 63 | 4 | 0.0 | 0.9 | 0.02 | 0.23 | 0.23 | 86 | |
| 20260505214835 | 62 | 63 | 0.0 | 2.6 | 0.02 | 0.23 | 0.23 | 86 | |
| 20260505214354 | 62 | 64 | 0.9 | 3.5 | 0.02 | 0.23 | 0.23 | 85 | |
| 20260505213850 | 62 | 120 | 0.9 | 4.3 | 0.03 | 0.23 | 0.23 | 85 | |
| 20260505213329 | 62 | 113 | 0.0 | 0.9 | 0.04 | 0.23 | 0.23 | 85 | |
| 20260505212828 | 62 | 112 | 0.0 | 1.7 | 0.10 | 0.23 | 0.23 | 85 | |
| 20260505212349 | 62 | 112 | 0.9 | 3.5 | 0.12 | 0.23 | 0.23 | 84 | |
| 20260505211825 | 62 | 121 | 0.0 | 6.1 | 0.13 | 0.23 | 0.23 | 83 | |
| 20260505211325 | 62 | 73 | 1.7 | 6.1 | 0.14 | 0.23 | 0.23 | 83 | |
| 20260505210847 | 62 | 141 | 1.7 | 4.3 | 0.14 | 0.23 | 0.23 | 82 | |
| 20260505210326 | 62 | 156 | 0.9 | 3.5 | 0.14 | 0.23 | 0.23 | 81 | |
| 20260505205846 | 63 | 127 | 0.0 | 6.1 | 0.13 | 0.22 | 0.22 | 79 | |
| 20260505205324 | 63 | 226 | 1.7 | 6.1 | 0.12 | 0.21 | 0.21 | 78 | |
| 20260505204825 | 64 | 126 | 2.6 | 13.0 | 0.12 | 0.21 | 0.21 | 75 | |
| 20260505204324 | 65 | 324 | 3.5 | 13.0 | 0.12 | 0.21 | 0.21 | 72 | |
| 20260505203845 | 66 | 270 | 7.0 | 16.5 | 0.11 | 0.20 | 0.20 | 67 | |
| 20260505203323 | 69 | 295 | 7.0 | 16.5 | 0.10 | 0.19 | 0.19 | 58 | |
| 20260505202822 | 72 | 132 | 7.0 | 13.9 | 0.03 | 0.12 | 0.12 | 53 | |
| 20260505202321 | 74 | 35 | 4.3 | 11.3 | 0.02 | 0.11 | 0.11 | 49 | |
| 20260505201820 | 76 | 219 | 5.2 | 11.3 | 0.01 | 0.10 | 0.10 | 42 | |
| 20260505201320 | 77 | 120 | 3.5 | 15.6 | 0.00 | 0.09 | 0.09 | 38 | |
| 20260505200820 | 77 | 236 | 5.2 | 15.6 | 0.00 | 0.09 | 0.09 | 37 | |
| 20260505200320 | 77 | 181 | 3.5 | 13.0 | 0.00 | 0.09 | 0.09 | 37 | |
| 20260505195820 | 77 | 171 | 1.7 | 10.4 | 0.00 | 0.09 | 0.09 | 38 | |
| 20260505195319 | 77 | 268 | 1.7 | 10.4 | 0.00 | 0.09 | 0.09 | 40 | |
| 20260505194839 | 77 | 121 | 0.9 | 5.2 | 0.00 | 0.09 | 0.09 | 41 | |
| 20260505194318 | 77 | 149 | 0.0 | 3.5 | 0.00 | 0.09 | 0.09 | 43 | |
| 20260505193837 | 77 | 170 | 0.0 | 3.5 | 0.00 | 0.09 | 0.09 | 43 | |
| 20260505193315 | 76 | 299 | 0.0 | 7.0 | 0.00 | 0.09 | 0.09 | 43 |